Location: *
(51.1248°S, 108.4023°W)
Time: 01:37:53
(UTC+00:00)

N. Korean satellite - Pass Details

Date: 03 October 2021
Orbit: 450 x 495 km, 97.3° (Epoch: 24 October)

Event Time Altitude Azimuth Distance (km) Brightness Sun altitude
Rises 11:10:02 0° 26° (NNE) 2,584 10.3 -13.8°
Reaches altitude 10° 11:12:08 10° 30° (NNE) 1,705 9.4 -13.5°
Maximum altitude 11:15:44 54° 108° (ESE) 612 7.4 -13.0°
Drops below altitude 10° 11:19:20 10° 185° (S) 1,709 9.6 -12.5°
Sets 11:21:26 0° 189° (S) 2,591 10.4 -12.2°
